U.S. Alerts
El Dorado Weather Logo
U.S. Radar Loop Conditions Map

U.S. Color Satellite North America Color Infrared Animated Satellite Loop

Interactive Wx Map Live U.S. Google Map Radar Thumbnail Image

US Precipitation 1 day, 24 hour precipitation map

US Temperatures US Conditions Map

US Climate Data US Conditions Map


NOAA NWS Hourly Roundups by Site
Regional Weather Roundup for Sacramento, CA
Select Site:  

000
ASUS46 KSTO 210815
RWRCA

NORTHERN AND CENTRAL CA REGIONAL WEATHER ROUNDUP
NATIONAL WEATHER SERVICE SACRAMENTO CA
1200 AM PST WED FEB 21 2024

NOTE: FAIR INDICATES FEW OR NO CLOUDS BELOW 12,000 FEET WITH NO
SIGNIFICANT WEATHER AND/OR OBSTRUCTIONS TO VISIBILITY.

CAZ001-003-210900-
NORTHWEST AREA

CITY           SKY/WX    TMP DP  RH WIND       PRES   REMARKS
CRESCENT CITY  HVY RAIN  50  50 100 S15G25    29.99R FOG
UKIAH          CLOUDY    46  43  89 CALM      30.06R
$$

CAZ006-505>513-210900-
BAY AREA

CITY           SKY/WX    TMP DP  RH WIND       PRES   REMARKS
SANTA ROSA     CLOUDY    50  50 100 CALM      30.07S
SAN RAFAEL     N/A       50  MM  MM MISG
NAPA           CLOUDY    49  48  97 N5        30.07S
CONCORD        MOCLDY    50  49  96 CALM      30.07S
OAKLAND CITY   N/A       52  MM  MM MISG
OAKLAND        MOCLDY    51  51 100 VRB3      30.08F
SAN FRAN CITY  N/A       51  MM 100 MISG
SAN FRAN ARPT  PTCLDY    50  48  93 SW5       30.07S
LIVERMORE      LGT RAIN  49  47  93 CALM      30.06S
HAYWARD        MOCLDY    52  50  93 CALM      30.07S
REDWOOD CITY   N/A       48  MM  98 MISG
MOFFETT ARPT   PTCLDY    50  48  93 W3        30.07S
SAN JOSE ARPT  PTCLDY    52  48  86 CALM      30.07S
$$
CAZ034-037-514>518-210900-
CENTRAL COAST

CITY           SKY/WX    TMP DP  RH WIND       PRES   REMARKS
WATSONVILLE    MOCLDY    47  47 100 CALM      30.08S FOG
SALINAS        PTCLDY    50  48  93 S5        30.08S
MONTEREY       PTCLDY    49  46  90 S5        30.08S
SAN LUIS OBISP CLOUDY    59  52  77 CALM      30.07S
SANTA MARIA    CLOUDY    54  54 100 CALM      30.08R
HALF MOON BAY  PTCLDY    46  46 100 CALM      30.08R FOG
$$
CAZ015-016-210900-
NORTHERN SACRAMENTO VALLEY

CITY           SKY/WX    TMP DP  RH WIND       PRES   REMARKS
REDDING        CLOUDY    51  48  89 CALM      30.03S
RED BLUFF      CLOUDY    49  44  83 S8        30.05S
OROVILLE       CLOUDY    51  47  86 SE12      30.07S
$$
CAZ016>018-210900-
SOUTHERN SACRAMENTO VALLEY

CITY           SKY/WX    TMP DP  RH WIND       PRES   REMARKS
AUBURN         CLOUDY    45  43  93 SE6       30.07R
BEALE AFB      LGT RAIN  51  49  92 S8        30.07R FOG
LINCOLN        CLOUDY    50  50 100 SE6       30.07S
MARYSVILLE     LGT RAIN  51  47  86 S10       30.08S
SAC INTL ARPT  CLOUDY    52  49  89 S6        30.07S
MATHER AIRPORT LGT RAIN  50  50 100 W5        30.07R
DOWNTOWN SAC   N/A       50  MM  MM MISG
SAC EXEC ARPT  CLOUDY    51  49  92 CALM      30.08S
VACAVILLE      CLOUDY    51  49  92 CALM      30.08S
TRAVIS AFB     MOCLDY    52  52 100 E3        30.11R
$$
CAZ019>021-210900-
SAN JOAQUIN VALLEY

CITY           SKY/WX    TMP DP  RH WIND       PRES   REMARKS
STOCKTON       FOG       49  48  97 CALM      30.07S VSB 1
MODESTO        FOG       47  46  97 CALM      30.07S VSB 1
MERCED         PTCLDY    51  47  86 CALM      30.08R
LEMOORE        MOCLDY    51  49  92 N7        30.08F
FRESNO         MOCLDY    55  46  71 N8        30.09S
HANFORD        CLOUDY    53  49  86 N6        30.08S
PORTERVILLE    CLOUDY    53  51  93 CALM      30.07F
BAKERSFIELD    CLOUDY    56  48  74 N10       30.04F
$$
CAZ011-012-071-210900-
NORTHERN MOUNTAINS

CITY           SKY/WX    TMP DP  RH WIND       PRES   REMARKS
YREKA          MOCLDY    39  34  82 SW5       29.97R
MOUNT SHASTA   MOCLDY    38  35  89 E3        29.98S
ALTURAS        CLOUDY    34  29  82 S5        29.98S WCI  30
$$
CAZ011-012-071-210900-
SIERRA NEVADA MTNS

CITY           SKY/WX    TMP DP  RH WIND       PRES   REMARKS
BLUE CANYON    FOG       33  31  92 S7        30.02S VSB<1/4 WCI  27
TRUCKEE        FOG       28  28 100 CALM      30.00S VSB 1/4
TAHOE VLY ARPT PTCLDY    31  25  78 S8        29.98F WCI  23
MAMMOTH LAKES  LGT SNOW  29  29  99 E3        30.01F
$$


 

View Past Reports for Sacramento, CA.

Products Courtesy of NOAA-NWS
NWS Information Parsing Script by Ken True at Saratoga Weather - Script by SE Lincoln Weather.



Contact Us Contact Us Thumbnail | Mobile Mobile Phone Thumbnail
Private Policy | Terms & Conds | Consent Preferences | Cookie Policy
Never base any life decisions on weather information from this site or anywhere over the Internet.
Site is dedicated to our Lord & Savior Jesus Christ | Random Quotes of Jesus

Copyright © 2024 El Dorado Weather, Inc. | Site Designed By:  Webmaster Danny